Location: Enikep?du
(16.5133°N, 80.7066°E)
Time: 11:25:36
(UTC+00:00)

Cosmos 1980 Rocket - Pass Details

Date: 15 May 2026
Orbit: 827 x 850 km, 71.0° (Epoch: 9 June)

Event Time Altitude Azimuth Distance (km) Brightness Sun altitude
Rises 14:38:33 0° 356° (N) 3,401 5.8 -22.2°
Reaches altitude 10° 14:41:11 10° 4° (N) 2,462 4.9 -22.8°
Enters shadow 14:45:59 36° 62° (ENE) 1,299 2.9 -23.8°
